FW9909 Weather Reports


Display with metric or nautical units.
time (UTC)temp
F
wind
direction
speed
MPH
gust
MPH
rain 1hr
in
rain 24hr
in
rain mn
in
humidity
%
barometer
mb
20260505112520 60 36 5.0 14.0 0.01 0.09 0.09 85 1005.9
20260505111518 61 51 5.0 10.0 0.01 0.08 0.08 85 1005.3
20260505110516 61 57 4.0 9.0 0.01 0.08 0.08 86 1006.3
20260505101527 61 62 4.0 10.0 0.01 0.07 0.07 86 1005.3
20260505100525 60 45 4.0 6.0 0.01 0.07 0.07 87 1005.3
20260505095523 61 60 2.0 5.0 0.01 0.07 0.07 83 1004.7
20260505094521 61 318 2.0 4.0 0.02 0.07 0.07 81 1004.6
20260505093539 62 79 3.0 5.0 0.02 0.06 0.06 79 1004.4
20260505092618 61 263 3.0 8.0 0.04 0.06 0.06 78 1004.5
20260505091516 60 288 3.0 8.0 0.04 0.06 0.06 84 1003.7
20260505090534 60 191 5.0 12.0 0.05 0.06 0.06 90 1002.8
20260505085552 61 200 6.0 13.0 0.06 0.06 0.06 89 1003.6
20260505084530 61 174 5.0 10.0 0.05 0.05 0.05 90 1004.8
20260505083528 62 245 4.0 8.0 0.04 0.04 0.04 89 1005.6
20260505082546 62 199 4.0 8.0 0.02 0.02 0.02 88 1005.6
20260505081545 62 70 3.0 6.0 0.02 0.02 0.02 86 1005.5
20260505080523 63 236 2.0 6.0 0.01 0.01 0.01 82 1005.2
20260505075521 64 232 5.0 11.0 0.00 0.00 0.00 79 1005.1
20260505074539 64 236 5.0 10.0 0.00 0.00 0.00 75 1005.3
20260505073557 64 253 5.0 9.0 0.00 0.00 0.00 73 1005.2
20260505072515 64 222 3.0 6.0 0.00 0.00 0.00 73 1005.0
20260505071533 64 238 4.0 7.0 0.00 0.00 0.00 71 1005.1
20260505070532 64 220 3.0 6.0 0.00 0.00 0.00 71 1005.0
20260505065530 64 212 3.0 7.0 0.00 0.00 0.00 71 1004.9
20260505064528 64 233 3.0 6.0 0.00 0.00 0.00 72 1005.2
20260505063526 64 221 3.0 5.0 0.00 0.00 0.00 71 1005.5
20260505062524 64 206 3.0 6.0 0.00 0.00 0.00 71 1005.6
20260505061522 64 233 3.0 6.0 0.00 0.00 0.00 71 1005.7
20260505060520 64 197 3.0 7.0 0.00 0.00 0.00 71 1005.7
20260505055518 64 208 2.0 6.0 0.00 0.00 0.00 71 1005.6
20260505054517 64 197 3.0 6.0 0.00 0.00 0.00 71 1005.5
20260505053535 65 218 4.0 6.0 0.00 0.00 0.00 70 1005.6
20260505052533 65 223 3.0 6.0 0.00 0.00 0.00 70 1005.5
20260505051531 65 230 4.0 6.0 0.00 0.00 0.00 70 1005.6
20260505050529 65 207 5.0 8.0 0.00 0.00 0.00 70 1005.5
20260505041520 66 218 3.0 6.0 0.00 0.00 0.00 67 1006.2
20260505040518 66 236 2.0 3.0 0.00 0.00 0.00 66 1006.5
20260505035537 67 232 2.0 4.0 0.00 0.00 0.00 65 1006.6
20260505034534 67 214 2.0 4.0 0.00 0.00 0.00 65 1006.7
20260505033553 68 233 2.0 4.0 0.00 0.00 0.00 64 1006.7
20260505032531 68 209 2.0 4.0 0.00 0.00 0.00 63 1006.7
20260505031529 68 224 2.0 5.0 0.00 0.00 0.00 62 1006.8
20260505030527 69 253 3.0 8.0 0.00 0.00 0.00 61 1006.7
20260505025525 69 236 3.0 6.0 0.00 0.00 0.00 61 1006.6
20260505024523 69 233 4.0 9.0 0.00 0.00 0.00 60 1006.5
20260505023522 70 227 3.0 4.0 0.00 0.00 0.00 60 1006.3
20260505022519 70 236 4.0 6.0 0.00 0.00 0.00 60 1006.0
20260505021518 70 222 4.0 9.0 0.00 0.00 0.00 59 1006.1
20260505020516 70 240 4.0 8.0 0.00 0.00 0.00 59 1006.0
20260505015534 71 231 3.0 6.0 0.00 0.00 0.00 58 1005.8
20260505014532 71 252 2.0 6.0 0.00 0.00 0.00 57 1005.6
20260505013530 71 243 2.0 5.0 0.00 0.00 0.00 57 1005.5
20260505012529 71 231 3.0 5.0 0.00 0.00 0.00 56 1005.3
20260505011526 72 239 3.0 6.0 0.00 0.00 0.00 55 1005.2
20260505010525 72 218 2.0 3.0 0.00 0.00 0.00 55 1005.1
20260505005523 73 229 3.0 4.0 0.00 0.00 0.00 52 1005.1
20260505004521 74 241 4.0 6.0 0.00 0.00 0.00 51 1005.0
20260505003519 74 246 4.0 10.0 0.00 0.00 0.00 50 1004.9
20260505002517 74 237 4.0 10.0 0.00 0.00 0.00 50 1004.9
20260505001536 75 242 3.0 6.0 0.00 0.00 0.00 49 1004.9
20260505000533 76 226 3.0 4.0 0.00 0.00 0.00 48 1004.8
20260504235532 76 238 3.0 6.0 0.00 0.00 0.00 47 1004.9
20260504234530 76 243 5.0 9.0 0.00 0.00 0.00 46 1004.8
20260504233528 77 235 5.0 10.0 0.00 0.00 0.00 46 1004.7
20260504232526 77 240 6.0 11.0 0.00 0.00 0.00 46 1004.7
20260504231525 78 233 6.0 15.0 0.00 0.00 0.00 45 1004.7
20260504230543 79 242 5.0 9.0 0.00 0.00 0.00 45 1004.8
20260504225521 79 244 5.0 12.0 0.00 0.00 0.00 45 1004.9
20260504224519 79 239 7.0 16.0 0.00 0.00 0.00 43 1004.8
20260504223517 80 229 7.0 16.0 0.00 0.00 0.00 43 1004.8
20260504222515 81 245 5.0 10.0 0.00 0.00 0.00 43 1004.8
20260504221533 80 249 7.0 15.0 0.00 0.00 0.00 43 1004.8
20260504220531 80 242 6.0 15.0 0.00 0.00 0.00 44 1005.0
20260504215530 80 231 6.0 11.0 0.00 0.00 0.00 44 1005.0
20260504214528 81 241 8.0 15.0 0.00 0.00 0.00 43 1005.0
20260504213546 81 245 5.0 9.0 0.00 0.00 0.00 46 1005.2
20260504212524 80 238 7.0 13.0 0.00 0.00 0.00 43 1005.2
20260504211522 81 255 8.0 15.0 0.00 0.00 0.00 42 1005.3
20260504210520 81 232 7.0 15.0 0.00 0.00 0.00 44 1005.5
20260504205518 81 252 8.0 14.0 0.00 0.00 0.00 44 1005.5
20260504204517 81 248 8.0 13.0 0.00 0.00 0.00 43 1005.6
20260504203535 81 227 6.0 14.0 0.00 0.00 0.00 43 1005.7
20260504202533 81 242 8.0 14.0 0.00 0.00 0.00 44 1006.0
20260504201531 80 239 7.0 11.0 0.00 0.00 0.00 45 1006.1
20260504200529 81 237 5.0 13.0 0.00 0.00 0.00 45 1006.1
20260504195527 81 246 7.0 13.0 0.00 0.00 0.00 45 1006.3
20260504194526 81 230 7.0 13.0 0.00 0.00 0.00 44 1006.3
20260504193544 81 242 6.0 13.0 0.00 0.00 0.00 43 1006.2
20260504192522 80 241 7.0 13.0 0.00 0.00 0.00 43 1006.5
20260504191540 79 243 7.0 17.0 0.00 0.00 0.00 45 1006.4
20260504190518 80 241 8.0 17.0 0.00 0.00 0.00 44 1006.5
20260504185516 80 244 8.0 16.0 0.00 0.00 0.00 45 1006.6
20260504184534 80 240 8.0 15.0 0.00 0.00 0.00 44 1006.5
20260504183532 80 229 9.0 17.0 0.00 0.00 0.00 45 1006.5
20260504182531 79 236 6.0 15.0 0.00 0.00 0.00 45 1006.6
20260504181529 79 233 7.0 12.0 0.00 0.00 0.00 45 1006.5
20260504180547 79 246 9.0 16.0 0.00 0.00 0.00 43 1006.6
20260504175525 79 245 7.0 14.0 0.00 0.00 0.00 45 1006.6
20260504174523 78 242 8.0 17.0 0.00 0.00 0.00 45 1006.9
20260504173521 78 241 8.0 13.0 0.00 0.00 0.00 45 1007.0
20260504172539 78 250 9.0 15.0 0.00 0.00 0.00 46 1007.0
20260504171517 78 233 7.0 14.0 0.00 0.00 0.00 46 1007.1
20260504170516 77 246 7.0 12.0 0.00 0.00 0.00 47 1007.1
20260504150533 72 242 6.0 11.0 0.00 0.00 0.00 49 1008.2
20260504140523 69 240 5.0 11.0 0.00 0.00 0.00 53 1008.9
20260504130531 65 254 6.0 15.0 0.00 0.00 0.00 55 1009.1